Time,TemperatureF,DewpointF,PressureIn,WindDirection,WindDirectionDegrees,WindSpeedMPH,WindSpeedGustMPH,Humidity,HourlyPrecipIn,Conditions,Clouds,dailyrainin,SoftwareType,DateUTC
2013-05-17 00:03:00,66.0,66.0,-100.00,North,5,0.0,1.0,99,-99.99,,,-99.99,,2013-05-17 04:03:00,
2013-05-17 00:13:00,66.0,66.0,-100.00,North,5,1.0,1.0,99,-99.99,,,-99.99,,2013-05-17 04:13:00,
2013-05-17 00:23:00,66.0,66.0,-100.00,North,5,1.0,1.0,100,-99.99,,,-99.99,,2013-05-17 04:23:00,
2013-05-17 00:34:00,65.0,65.0,-100.00,North,5,0.0,1.0,99,-99.99,,,-99.99,,2013-05-17 04:34:00,
2013-05-17 00:43:00,65.0,65.0,-100.00,North,5,0.0,0.0,100,-99.99,,,-99.99,,2013-05-17 04:43:00,
2013-05-17 00:53:00,64.0,64.0,-100.00,North,5,1.0,2.0,100,-99.99,,,-99.99,,2013-05-17 04:53:00,
2013-05-17 01:03:00,64.0,64.0,-100.00,North,5,1.0,3.0,100,-99.99,,,-99.99,,2013-05-17 05:03:00,
2013-05-17 01:14:00,64.0,64.0,-100.00,North,5,0.0,1.0,99,-99.99,,,-99.99,,2013-05-17 05:14:00,
2013-05-17 01:22:00,63.0,63.0,-100.00,North,5,1.0,1.0,99,-99.99,,,-99.99,,2013-05-17 05:22:00,
2013-05-17 01:32:00,63.0,63.0,-100.00,North,5,0.0,1.0,99,-99.99,,,-99.99,,2013-05-17 05:32:00,
2013-05-17 01:43:00,63.0,63.0,-100.00,North,5,0.0,0.0,99,-99.99,,,-99.99,,2013-05-17 05:43:00,
2013-05-17 01:52:00,63.0,62.0,-100.00,North,5,0.0,0.0,99,-99.99,,,-99.99,,2013-05-17 05:52:00,
2013-05-17 02:02:00,63.0,63.0,-100.00,North,5,0.0,0.0,100,-99.99,,,-99.99,,2013-05-17 06:02:00,
2013-05-17 02:11:00,62.0,62.0,-100.00,North,5,0.0,0.0,100,-99.99,,,-99.99,,2013-05-17 06:11:00,
2013-05-17 02:22:00,62.0,62.0,-100.00,North,5,0.0,0.0,99,-99.99,,,-99.99,,2013-05-17 06:22:00,
2013-05-17 02:32:00,62.0,62.0,-100.00,North,5,0.0,0.0,99,-99.99,,,-99.99,,2013-05-17 06:32:00,
2013-05-17 02:42:00,62.0,62.0,-100.00,North,5,0.0,0.0,99,-99.99,,,-99.99,,2013-05-17 06:42:00,
2013-05-17 02:52:00,62.0,62.0,-100.00,North,5,0.0,0.0,100,-99.99,,,-99.99,,2013-05-17 06:52:00,
2013-05-17 03:03:00,62.0,62.0,-100.00,North,5,0.0,0.0,100,-99.99,,,-99.99,,2013-05-17 07:03:00,
2013-05-17 03:11:00,61.0,61.0,-100.00,North,5,0.0,0.0,99,-99.99,,,-99.99,,2013-05-17 07:11:00,
2013-05-17 03:21:00,61.0,61.0,-100.00,North,5,0.0,0.0,100,-99.99,,,-99.99,,2013-05-17 07:21:00,
2013-05-17 03:32:00,61.0,61.0,-100.00,North,5,0.0,0.0,100,-99.99,,,-99.99,,2013-05-17 07:32:00,
2013-05-17 03:43:00,61.0,61.0,-100.00,North,5,0.0,0.0,100,-99.99,,,-99.99,,2013-05-17 07:43:00,
2013-05-17 03:53:00,61.0,60.0,-100.00,North,5,0.0,0.0,99,-99.99,,,-99.99,,2013-05-17 07:53:00,
2013-05-17 04:02:00,60.0,60.0,-100.00,North,5,0.0,0.0,99,-99.99,,,-99.99,,2013-05-17 08:02:00,
2013-05-17 04:12:00,60.0,60.0,-100.00,North,5,0.0,0.0,99,-99.99,,,-99.99,,2013-05-17 08:12:00,
2013-05-17 04:23:00,60.0,60.0,-100.00,North,5,0.0,0.0,99,-99.99,,,-99.99,,2013-05-17 08:23:00,
2013-05-17 04:34:00,60.0,60.0,-100.00,North,5,0.0,0.0,99,-99.99,,,-99.99,,2013-05-17 08:34:00,
2013-05-17 04:42:00,60.0,60.0,-100.00,North,5,0.0,0.0,99,-99.99,,,-99.99,,2013-05-17 08:42:00,
2013-05-17 04:52:00,60.0,59.0,-100.00,North,5,0.0,0.0,99,-99.99,,,-99.99,,2013-05-17 08:52:00,
2013-05-17 05:02:00,60.0,59.0,-100.00,North,5,0.0,0.0,99,-99.99,,,-99.99,,2013-05-17 09:02:00,
2013-05-17 05:12:00,60.0,60.0,-100.00,North,5,0.0,0.0,99,-99.99,,,-99.99,,2013-05-17 09:12:00,
2013-05-17 05:22:00,62.0,62.0,-100.00,North,5,1.0,2.0,100,-99.99,,,-99.99,,2013-05-17 09:22:00,
2013-05-17 05:33:00,60.0,60.0,-100.00,North,5,0.0,3.0,99,-99.99,,,-99.99,,2013-05-17 09:33:00,
2013-05-17 05:42:00,60.0,59.0,-100.00,North,5,0.0,0.0,99,-99.99,,,-99.99,,2013-05-17 09:42:00,
2013-05-17 05:53:00,60.0,59.0,-100.00,North,5,0.0,0.0,99,-99.99,,,-99.99,,2013-05-17 09:53:00,
2013-05-17 06:03:00,59.0,59.0,-100.00,North,5,0.0,0.0,100,-99.99,,,-99.99,,2013-05-17 10:03:00,
2013-05-17 06:12:00,59.0,59.0,-100.00,North,5,0.0,0.0,99,-99.99,,,-99.99,,2013-05-17 10:12:00,
2013-05-17 06:23:00,59.0,59.0,-100.00,North,5,0.0,0.0,99,-99.99,,,-99.99,,2013-05-17 10:23:00,
2013-05-17 06:33:00,59.0,59.0,-100.00,North,5,0.0,0.0,99,-99.99,,,-99.99,,2013-05-17 10:33:00,
2013-05-17 06:42:00,59.0,59.0,-100.00,North,5,0.0,0.0,99,-99.99,,,-99.99,,2013-05-17 10:42:00,
2013-05-17 06:53:00,59.0,59.0,-100.00,North,5,0.0,0.0,99,-99.99,,,-99.99,,2013-05-17 10:53:00,
2013-05-17 07:02:00,60.0,60.0,-100.00,North,5,2.0,3.0,100,-99.99,,,-99.99,,2013-05-17 11:02:00,
2013-05-17 07:12:00,60.0,60.0,-100.00,North,5,1.0,1.0,100,-99.99,,,-99.99,,2013-05-17 11:12:00,
2013-05-17 07:23:00,60.0,60.0,-100.00,North,5,1.0,1.0,99,-99.99,,,-99.99,,2013-05-17 11:23:00,
2013-05-17 07:34:00,60.0,60.0,-100.00,North,5,0.0,2.0,100,-99.99,,,-99.99,,2013-05-17 11:34:00,
2013-05-17 07:42:00,60.0,59.0,-100.00,North,5,1.0,2.0,99,-99.99,,,-99.99,,2013-05-17 11:42:00,
2013-05-17 07:53:00,60.0,60.0,-100.00,North,5,0.0,1.0,100,-99.99,,,-99.99,,2013-05-17 11:53:00,
2013-05-17 08:03:00,61.0,61.0,-100.00,North,5,0.0,1.0,99,-99.99,,,-99.99,,2013-05-17 12:03:00,
2013-05-17 08:12:00,62.0,62.0,-100.00,North,5,0.0,1.0,99,-99.99,,,-99.99,,2013-05-17 12:12:00,
2013-05-17 08:23:00,64.0,64.0,-100.00,North,5,0.0,1.0,99,-99.99,,,-99.99,,2013-05-17 12:23:00,
2013-05-17 08:33:00,66.0,66.0,-100.00,North,5,0.0,0.0,100,-99.99,,,-99.99,,2013-05-17 12:33:00,
2013-05-17 08:43:00,68.0,68.0,-100.00,North,5,0.0,0.0,100,-99.99,,,-99.99,,2013-05-17 12:43:00,
2013-05-17 08:53:00,69.0,69.0,-100.00,North,5,0.0,2.0,99,-99.99,,,-99.99,,2013-05-17 12:53:00,
2013-05-17 09:04:00,68.0,68.0,-100.00,North,5,2.0,3.0,99,-99.99,,,-99.99,,2013-05-17 13:04:00,
2013-05-17 09:12:00,67.0,67.0,-100.00,North,5,3.0,7.0,99,-99.99,,,-99.99,,2013-05-17 13:12:00,
2013-05-17 09:23:00,68.0,68.0,-100.00,North,5,1.0,6.0,99,-99.99,,,-99.99,,2013-05-17 13:23:00,
2013-05-17 09:33:00,70.0,70.0,-100.00,North,5,1.0,3.0,99,-99.99,,,-99.99,,2013-05-17 13:33:00,
2013-05-17 09:42:00,73.0,72.0,-100.00,North,5,0.0,1.0,99,-99.99,,,-99.99,,2013-05-17 13:42:00,
2013-05-17 09:52:00,75.0,75.0,-100.00,North,5,1.0,1.0,99,-99.99,,,-99.99,,2013-05-17 13:52:00,
2013-05-17 10:02:00,75.0,75.0,-100.00,North,5,0.0,3.0,99,-99.99,,,-99.99,,2013-05-17 14:02:00,
2013-05-17 10:13:00,75.0,75.0,-100.00,North,5,0.0,3.0,99,-99.99,,,-99.99,,2013-05-17 14:13:00,
2013-05-17 10:22:00,76.0,76.0,-100.00,North,5,1.0,2.0,99,-99.99,,,-99.99,,2013-05-17 14:22:00,
2013-05-17 10:34:00,77.0,77.0,-100.00,North,5,1.0,3.0,99,-99.99,,,-99.99,,2013-05-17 14:34:00,
2013-05-17 10:43:00,78.0,78.0,-100.00,North,5,0.0,4.0,99,-99.99,,,-99.99,,2013-05-17 14:43:00,
2013-05-17 10:53:00,80.0,79.0,-100.00,North,5,0.0,4.0,99,-99.99,,,-99.99,,2013-05-17 14:53:00,
2013-05-17 11:03:00,78.0,78.0,-100.00,North,5,4.0,6.0,99,-99.99,,,-99.99,,2013-05-17 15:03:00,
2013-05-17 11:14:00,80.0,80.0,-100.00,North,5,3.0,6.0,99,-99.99,,,-99.99,,2013-05-17 15:14:00,
2013-05-17 11:25:00,80.0,80.0,-100.00,North,5,2.0,10.0,99,-99.99,,,-99.99,,2013-05-17 15:25:00,
2013-05-17 11:37:00,79.0,78.0,-100.00,North,5,6.0,11.0,99,-99.99,,,-99.99,,2013-05-17 15:37:00,
2013-05-17 11:47:00,79.0,79.0,-100.00,North,5,6.0,14.0,99,-99.99,,,-99.99,,2013-05-17 15:47:00,
2013-05-17 11:56:00,80.0,79.0,-100.00,North,5,4.0,9.0,99,-99.99,,,-99.99,,2013-05-17 15:56:00,
2013-05-17 12:07:00,80.0,79.0,-100.00,North,5,5.0,11.0,99,-99.99,,,-99.99,,2013-05-17 16:07:00,
2013-05-17 12:14:00,80.0,79.0,-100.00,North,5,7.0,14.0,99,-99.99,,,-99.99,,2013-05-17 16:14:00,
2013-05-17 12:26:00,80.0,80.0,-100.00,North,5,6.0,11.0,99,-99.99,,,-99.99,,2013-05-17 16:26:00,
2013-05-17 12:37:00,81.0,81.0,-100.00,North,5,6.0,11.0,99,-99.99,,,-99.99,,2013-05-17 16:37:00,
2013-05-17 12:49:00,80.0,80.0,-100.00,North,5,9.0,14.0,99,-99.99,,,-99.99,,2013-05-17 16:49:00,
2013-05-17 12:56:00,82.0,82.0,-100.00,North,5,4.0,13.0,99,-99.99,,,-99.99,,2013-05-17 16:56:00,
2013-05-17 13:08:00,81.0,81.0,-100.00,North,5,9.0,13.0,99,-99.99,,,-99.99,,2013-05-17 17:08:00,
2013-05-17 13:19:00,82.0,82.0,-100.00,North,5,7.0,12.0,99,-99.99,,,-99.99,,2013-05-17 17:19:00,
2013-05-17 13:30:00,82.0,82.0,-100.00,North,5,6.0,16.0,99,-99.99,,,-99.99,,2013-05-17 17:30:00,
2013-05-17 13:40:00,82.0,-99.9,-100.00,North,5,6.0,13.0,99,-99.99,,,-99.99,,2013-05-17 17:40:00,
2013-05-17 13:49:00,84.0,83.0,-100.00,North,5,6.0,10.0,99,-99.99,,,-99.99,,2013-05-17 17:49:00,
2013-05-17 14:00:00,83.0,83.0,-100.00,North,5,4.0,13.0,99,-99.99,,,-99.99,,2013-05-17 18:00:00,
2013-05-17 14:09:00,83.0,83.0,-100.00,North,5,4.0,13.0,100,-99.99,,,-99.99,,2013-05-17 18:09:00,
2013-05-17 14:20:00,82.0,81.0,-100.00,North,5,6.0,16.0,99,-99.99,,,-99.99,,2013-05-17 18:20:00,
2013-05-17 14:30:00,82.0,82.0,-100.00,North,5,11.0,16.0,99,-99.99,,,-99.99,,2013-05-17 18:30:00,
2013-05-17 14:40:00,83.0,-99.9,-100.00,North,5,6.0,14.0,99,-99.99,,,-99.99,,2013-05-17 18:40:00,
2013-05-17 14:50:00,-999.0,-99.9,-100.00,North,5,8.0,17.0,99,-99.99,,,-99.99,,2013-05-17 18:50:00,
2013-05-17 15:00:00,84.0,84.0,-100.00,North,5,4.0,12.0,99,-99.99,,,-99.99,,2013-05-17 19:00:00,
2013-05-17 15:10:00,83.0,82.0,-100.00,North,5,8.0,14.0,99,-99.99,,,-99.99,,2013-05-17 19:10:00,
2013-05-17 15:20:00,83.0,82.0,-100.00,North,5,8.0,14.0,99,-99.99,,,-99.99,,2013-05-17 19:20:00,
2013-05-17 15:30:00,83.0,83.0,-100.00,North,5,4.0,11.0,99,-99.99,,,-99.99,,2013-05-17 19:30:00,
2013-05-17 15:40:00,83.0,83.0,-100.00,North,5,3.0,8.0,99,-99.99,,,-99.99,,2013-05-17 19:40:00,
2013-05-17 15:51:00,83.0,82.0,-100.00,North,5,9.0,12.0,99,-99.99,,,-99.99,,2013-05-17 19:51:00,
2013-05-17 16:00:00,83.0,-99.9,-100.00,North,5,1.0,10.0,99,-99.99,,,-99.99,,2013-05-17 20:00:00,
2013-05-17 16:10:00,83.0,82.0,-100.00,North,5,5.0,14.0,99,-99.99,,,-99.99,,2013-05-17 20:10:00,
2013-05-17 16:20:00,83.0,82.0,-100.00,North,5,5.0,16.0,99,-99.99,,,-99.99,,2013-05-17 20:20:00,
2013-05-17 16:30:00,83.0,83.0,-100.00,North,5,9.0,14.0,99,-99.99,,,-99.99,,2013-05-17 20:30:00,
2013-05-17 16:40:00,83.0,83.0,-100.00,North,5,6.0,11.0,99,-99.99,,,-99.99,,2013-05-17 20:40:00,
2013-05-17 16:50:00,83.0,83.0,-100.00,North,5,3.0,14.0,99,-99.99,,,-99.99,,2013-05-17 20:50:00,
2013-05-17 16:58:00,82.0,82.0,-100.00,North,5,5.0,10.0,99,-99.99,,,-99.99,,2013-05-17 20:58:00,
2013-05-17 17:07:00,81.0,81.0,-100.00,North,5,6.0,18.0,99,-99.99,,,-99.99,,2013-05-17 21:07:00,
2013-05-17 17:17:00,84.0,84.0,-100.00,North,5,1.0,8.0,99,-99.99,,,-99.99,,2013-05-17 21:17:00,
2013-05-17 17:26:00,82.0,81.0,-100.00,North,5,4.0,15.0,99,-99.99,,,-99.99,,2013-05-17 21:26:00,
2013-05-17 17:39:00,81.0,80.0,-100.00,North,5,8.0,15.0,99,-99.99,,,-99.99,,2013-05-17 21:39:00,
2013-05-17 17:49:00,80.0,79.0,-100.00,North,5,8.0,14.0,99,-99.99,,,-99.99,,2013-05-17 21:49:00,
2013-05-17 17:57:00,83.0,82.0,-100.00,North,5,4.0,13.0,99,-99.99,,,-99.99,,2013-05-17 21:57:00,
2013-05-17 18:07:00,83.0,82.0,-100.00,North,5,6.0,11.0,99,-99.99,,,-99.99,,2013-05-17 22:07:00,
2013-05-17 18:17:00,82.0,82.0,-100.00,North,5,4.0,12.0,99,-99.99,,,-99.99,,2013-05-17 22:17:00,
2013-05-17 18:28:00,81.0,81.0,-100.00,North,5,8.0,15.0,99,-99.99,,,-99.99,,2013-05-17 22:28:00,
2013-05-17 18:38:00,81.0,81.0,-100.00,North,5,6.0,11.0,99,-99.99,,,-99.99,,2013-05-17 22:38:00,
2013-05-17 18:47:00,82.0,81.0,-100.00,North,5,5.0,13.0,99,-99.99,,,-99.99,,2013-05-17 22:47:00,
2013-05-17 18:54:00,80.0,80.0,-100.00,North,5,5.0,11.0,99,-99.99,,,-99.99,,2013-05-17 22:54:00,
2013-05-17 19:04:00,79.0,79.0,-100.00,North,5,4.0,9.0,99,-99.99,,,-99.99,,2013-05-17 23:04:00,
2013-05-17 19:13:00,79.0,78.0,-100.00,North,5,5.0,9.0,99,-99.99,,,-99.99,,2013-05-17 23:13:00,
2013-05-17 19:23:00,78.0,78.0,-100.00,North,5,8.0,10.0,99,-99.99,,,-99.99,,2013-05-17 23:23:00,
2013-05-17 19:37:00,78.0,78.0,-100.00,North,5,5.0,9.0,99,-99.99,,,-99.99,,2013-05-17 23:37:00,
2013-05-17 19:47:00,80.0,79.0,-100.00,North,5,4.0,8.0,99,-99.99,,,-99.99,,2013-05-17 23:47:00,
2013-05-17 19:54:00,79.0,79.0,-100.00,North,5,4.0,9.0,99,-99.99,,,-99.99,,2013-05-17 23:54:00,
2013-05-17 20:02:00,79.0,78.0,-100.00,North,5,4.0,7.0,99,-99.99,,,-99.99,,2013-05-18 00:02:00,
2013-05-17 20:14:00,78.0,78.0,-100.00,North,5,3.0,9.0,99,-99.99,,,-99.99,,2013-05-18 00:14:00,
2013-05-17 20:22:00,78.0,77.0,-100.00,North,5,2.0,5.0,99,-99.99,,,-99.99,,2013-05-18 00:22:00,
2013-05-17 20:34:00,76.0,76.0,-100.00,North,5,1.0,1.0,100,-99.99,,,-99.99,,2013-05-18 00:34:00,
2013-05-17 20:45:00,76.0,75.0,-100.00,North,5,0.0,1.0,99,-99.99,,,-99.99,,2013-05-18 00:45:00,
2013-05-17 20:54:00,75.0,75.0,-100.00,North,5,0.0,0.0,99,-99.99,,,-99.99,,2013-05-18 00:54:00,
2013-05-17 21:03:00,74.0,74.0,-100.00,North,5,0.0,0.0,99,-99.99,,,-99.99,,2013-05-18 01:03:00,
2013-05-17 21:13:00,73.0,73.0,-100.00,North,5,0.0,0.0,99,-99.99,,,-99.99,,2013-05-18 01:13:00,
2013-05-17 21:24:00,72.0,72.0,-100.00,North,5,0.0,0.0,99,-99.99,,,-99.99,,2013-05-18 01:24:00,
2013-05-17 21:32:00,71.0,71.0,-100.00,North,5,0.0,0.0,99,-99.99,,,-99.99,,2013-05-18 01:32:00,
2013-05-17 21:43:00,71.0,71.0,-100.00,North,5,0.0,0.0,99,-99.99,,,-99.99,,2013-05-18 01:43:00,
2013-05-17 21:52:00,71.0,71.0,-100.00,North,5,0.0,0.0,99,-99.99,,,-99.99,,2013-05-18 01:52:00,
2013-05-17 22:03:00,71.0,70.0,-100.00,North,5,0.0,1.0,99,-99.99,,,-99.99,,2013-05-18 02:03:00,
2013-05-17 22:12:00,70.0,70.0,-100.00,North,5,0.0,0.0,99,-99.99,,,-99.99,,2013-05-18 02:12:00,
2013-05-17 22:23:00,70.0,69.0,-100.00,North,5,0.0,0.0,99,-99.99,,,-99.99,,2013-05-18 02:23:00,
2013-05-17 22:32:00,69.0,69.0,-100.00,North,5,0.0,0.0,99,-99.99,,,-99.99,,2013-05-18 02:32:00,
2013-05-17 22:42:00,69.0,68.0,-100.00,North,5,0.0,0.0,99,-99.99,,,-99.99,,2013-05-18 02:42:00,
2013-05-17 22:53:00,68.0,68.0,-100.00,North,5,0.0,0.0,99,-99.99,,,-99.99,,2013-05-18 02:53:00,
2013-05-17 23:03:00,68.0,68.0,-100.00,North,5,0.0,0.0,99,-99.99,,,-99.99,,2013-05-18 03:03:00,
2013-05-17 23:12:00,68.0,68.0,-100.00,North,5,0.0,1.0,99,-99.99,,,-99.99,,2013-05-18 03:12:00,
2013-05-17 23:23:00,68.0,68.0,-100.00,North,5,0.0,0.0,100,-99.99,,,-99.99,,2013-05-18 03:23:00,
2013-05-17 23:33:00,67.0,67.0,-100.00,North,5,0.0,0.0,99,-99.99,,,-99.99,,2013-05-18 03:33:00,
2013-05-17 23:43:00,67.0,67.0,-100.00,North,5,0.0,1.0,99,-99.99,,,-99.99,,2013-05-18 03:43:00,
2013-05-17 23:53:00,67.0,67.0,-100.00,North,5,0.0,1.0,99,-99.99,,,-99.99,,2013-05-18 03:53:00,